ATLAS CENTAUR 2 R/B, 694

Orbit data source: Space-Track

ATLAS CENTAUR 2 R/B, 694 is space debris in LEO originally from a launch on Wed, 27 Nov 1963 UTC via an ATLAS CENTAUR launch vehicle from the Air Force Eastern Test Range (AFETR). Debris objects in space refer to the collection of defunct objects orbiting the Earth. Examples of debris include non-operational satellites, rocket bodies, and fragments generated from explosions, collisions, or faulty payload assembly.

Loading next visibility...
Identifier
694, 1963-047A
Orbit
LEO
Last TLE update
17 hours ago
Origin
Manufacturer
GD/Convair
Mission
Civil Technology
Bus & Motor
AC R&D, Unknown motor
Mass
4,300 kg wet, 900 kg dry
Launch date (UTC)
1963-11-27 (62 years ago)
Launch vehicle
ATLAS CENTAUR
Launch site
Air Force Eastern Test Range (AFETR)
Object type
Payload
Rocket body
Debris
Shape & HBR
Cyl + 2 Nozzle, 8.59 m
Radar Cross Section
24.688 m², Large (>1 m²)

Expand to show TLE details & history

TLE from 17 hours ago
0 ATLAS CENTAUR 2 R/B
1   694U 63047A   25182.03960735  .00002272  00000-0  27066-3 0  9997
2   694  30.3522 160.5797 0552588  24.7340 337.8735 14.10827212 95664
Epoch: 2025-07-01T00:57Z
TLE epoch observation values (Epoch: 2025-07-01T00:57:02.075Z)
Latitude
-0.00001°
Longitude
-133.01975°
Altitude
488.192 km
Speed
7.814 km/s
True Right ascension
10h 42m 19s
True Declination
0° 00' 00"
Sunlit
Object was in daylight at epoch
Visualization orbit readout
Latitude
-27.22233°
Longitude
162.18869°
Altitude
876.329 km
Speed
7.408 km/s
Apparent Right ascension
08h 54m 57s
Apparent Declination
-73° 14' 33"
Sunlit
Object is in daylight
Visualization observer readout
Local Sidereal Time
05:18:25
Azimuth
164.505° S
Elevation
-29.003°
Doppler factor
1
Orbital elements
Apogee altitude
1,260.31 km
Perigee altitude
460.333 km
Semi-major axis
7,238.459 km
Eccentricity
0.05526
Inclination
30.3522°
RAAN
160.5797°
Arg. of periapsis
24.734°
True anomaly
Unknown
Mean anomaly
337.8735°
Eccentric anomaly
Unknown
Mean motion
3.52431 °/min
Orbital period
102.15 mins
BSTAR
0.00027066
Loading maneuver chart data...
Loading SW <> Apogee altitude chart data...

ATLAS CENTAUR 2 R/B Visibility forecast

Observer location: undefined°, undefined°

Span
Click to sort rows by Start time (UTC) header in descending order
Start Az.
Max El. time (UTC)
Max El. Az.
Max El.
End time (UTC)
End Az.
5 mins2025-07-02 04:28:47.571Z209.697° SW2025-07-02 04:30:47.571Z169.591° S21.972°2025-07-02 04:33:47.571Z126.987° SE
6 mins2025-07-02 06:15:47.571Z225.666° WSW2025-07-02 06:17:47.571Z195.421° SSW20.169°2025-07-02 06:21:47.571Z145.138° SSE
|